Temperature
5 6 5 5 6 6 6 6 6 8 9 10 10 9 9 9 8 7 6 6 8 9 10 10 10 10 10 10 9 9 9 8 8 7 6 6 5 4 4 3 2 2 1 1
6 6 6 6 6 6 6 7 7 8 8 10 9 9 9 9 8 7 6 6 8 9 10 10 10 10 9 9 9 8 8 7 7 6 5 5 4 3 3 2 1 1 0 0
7 7 7 7 7 7 7 8 8 8 9 9 9 9 8 8 8 7 7 7 8 10 10 10 10 9 9 9 8 8 7 6 6 5 4 3 3 2 2 1 0 -0 -0 -0
6 7 8 9 9 9 8 8 9 9 9 9 8 7 6 7 8 8 7 7 9 10 10 10 9 9 9 8 8 7 6 5 4 3 3 2 2 1 0 0 -0 -1 -1 -1
7 8 9 9 9 9 8 8 9 9 9 9 8 8 7 7 9 9 8 9 9 10 10 10 9 8 8 7 6 5 4 4 3 2 2 1 1 0 -0 -1 -1 -1 -1 -2
7 8 9 10 9 9 10 9 9 9 9 8 7 9 7 6 8 9 9 9 9 10 10 9 8 8 7 6 5 4 3 3 2 1 1 0 -0 -0 -1 -1 -1 -2 -2 -3
7 8 8 9 8 9 9 10 9 9 8 7 7 7 5 6 7 8 9 9 9 9 9 8 8 7 6 5 4 3 2 2 1 0 0 -0 -1 -1 -1 -2 -2 -3 -3 -3
7 8 9 9 8 8 9 8 8 8 8 6 4 4 5 6 7 8 8 8 8 8 7 7 6 6 5 4 3 2 1 1 0 -0 -1 -1 -1 -2 -2 -2 -3 -3 -3 -4
7 8 8 9 9 9 8 8 7 7 8 8 6 4 5 5 5 6 6 7 7 7 6 5 4 4 4 2 1 1 0 -0 -1 -1 -1 -2 -2 -2 -3 -3 -4 -4 -5 -5
7 8 8 9 9 9 8 7 7 8 9 9 7 5 4 5 5 5 6 6 6 6 5 3 2 2 2 1 0 -0 -0 -1 -1 -2 -2 -2 -3 -3 -3 -4 -4 -5 -6 -7
8 8 8 9 9 9 8 7 7 7 7 8 7 5 5 5 5 6 6 5 5 5 4 2 1 1 0 0 -0 -1 -1 -1 -2 -2 -2 -3 -3 -4 -4 -5 -6 -7 -8 -9
8 9 8 8 8 8 8 7 7 7 5 5 7 7 6 6 5 5 5 4 4 3 3 1 0 0 -0 -1 -1 -1 -1 -2 -2 -3 -3 -3 -4 -4 -5 -6 -6 -7 -8 -9
10 10 9 8 8 8 8 7 7 7 7 6 6 7 7 6 5 4 4 3 3 2 2 1 -0 -1 -1 -1 -1 -2 -2 -2 -3 -3 -4 -4 -5 -5 -5 -5 -6 -7 -8 -8
10 10 8 8 8 8 8 7 7 7 7 7 7 7 7 5 4 3 2 2 1 1 0 -0 -1 -1 -1 -2 -2 -2 -2 -3 -3 -4 -5 -5 -5 -6 -7 -7 -7 -7 -8 -9
8 9 9 8 7 7 7 7 7 7 7 6 6 6 5 4 3 2 1 1 0 -0 -1 -1 -1 -2 -2 -2 -2 -3 -3 -4 -4 -5 -5 -6 -6 -7 -7 -8 -9 -9 -9 -9
7 8 8 7 6 6 6 7 7 7 6 6 5 5 4 3 2 1 1 0 -0 -0 -1 -1 -2 -2 -2 -3 -3 -4 -4 -5 -5 -6 -6 -6 -7 -7 -8 -9 -9 -10 -10 -10
7 5 4 4 6 6 6 8 8 7 6 5 5 4 3 3 2 1 -0 -1 -1 -1 -2 -2 -2 -3 -3 -4 -4 -5 -5 -6 -6 -6 -6 -7 -7 -8 -9 -10 -10 -10 -10 -10
10 11 10 9 7 6 6 7 7 7 6 5 4 4 3 3 2 1 -0 -1 -1 -2 -2 -3 -3 -4 -4 -4 -5 -5 -6 -6 -6 -6 -7 -7 -8 -9 -10 -10 -10 -10 -10 -10
9 9 8 7 7 7 7 7 7 6 5 5 4 4 3 2 1 1 -0 -1 -2 -2 -3 -3 -4 -4 -5 -5 -6 -6 -6 -6 -6 -7 -8 -8 -9 -10 -10 -10 -11 -11 -11 -11
8 7 6 6 6 7 7 7 6 5 5 4 4 3 1 1 0 -0 -1 -2 -3 -3 -4 -4 -5 -5 -5 -6 -6 -6 -6 -7 -7 -8 -8 -9 -10 -10 -10 -11 -11 -11 -11 -11
7 6 5 6 6 6 7 6 6 5 4 3 3 2 1 0 -1 -1 -2 -3 -3 -4 -4 -5 -5 -6 -6 -6 -6 -6 -7 -7 -8 -9 -9 -10 -10 -11 -11 -11 -11 -11 -11 -11
6 5 5 5 6 6 5 5 5 4 3 2 2 1 0 -0 -1 -2 -3 -4 -4 -4 -5 -5 -6 -6 -6 -6 -6 -7 -7 -8 -9 -10 -10 -11 -11 -11 -11 -11 -11 -11 -11 -11
4 4 4 5 5 5 4 3 3 3 2 2 1 0 -0 -1 -2 -3 -3 -4 -4 -5 -5 -5 -6 -6 -6 -7 -7 -8 -8 -9 -10 -10 -10 -11 -11 -11 -11 -11 -11 -11 -11 -11
3 3 4 4 4 4 3 2 2 2 1 0 -0 -1 -1 -2 -3 -4 -4 -4 -5 -5 -5 -6 -6 -6 -7 -7 -8 -8 -9 -10 -10 -10 -11 -11 -11 -11 -11 -11 -11 -11 -11 -11
3 3 4 4 4 4 3 2 1 0 -0 -1 -2 -3 -3 -3 -3 -4 -4 -5 -5 -5 -6 -6 -7 -7 -7 -8 -9 -9 -10 -10 -10 -11 -11 -11 -11 -11 -11 -11 -11 -11 -11 -11
3 3 3 4 4 3 2 1 0 -0 -1 -2 -3 -4 -4 -4 -4 -5 -5 -5 -6 -6 -6 -7 -7 -8 -8 -9 -9 -10 -10 -10 -10 -11 -11 -11 -11 -11 -11 -11 -12 -12 -11 -11
2 3 3 3 3 2 1 1 0 -1 -1 -2 -3 -4 -4 -4 -5 -5 -5 -6 -6 -6 -7 -7 -8 -9 -9 -9 -10 -10 -10 -10 -11 -11 -11 -11 -11 -11 -11 -12 -12 -11 -11 -11
Wind_Speed
18 17 12 12 14 19 23 22 13 12 18 20 12 13 13 9 6 10 12 14 14 13 12 13 13 12 12 13 12 13 13 12 10 9 9 8 8 7 7 7 6 4 4 4
14 19 20 20 20 21 24 23 24 18 20 15 11 10 10 7 10 12 14 14 14 14 15 15 15 14 13 13 11 12 13 11 9 9 8 8 8 7 7 6 5 4 4 5
7 8 7 11 19 25 21 18 19 23 22 10 9 6 4 6 11 13 14 15 16 16 15 14 14 15 14 12 12 12 12 10 9 9 8 8 7 7 6 5 4 4 4 5
6 7 4 5 6 12 17 17 17 15 11 7 5 2 2 3 6 10 13 14 13 14 14 13 12 13 14 13 13 12 11 10 8 9 8 7 7 7 5 3 3 3 4 5
4 5 6 6 3 5 8 8 15 18 14 6 1 2 0 3 0 8 10 11 12 13 15 14 14 15 16 13 12 12 10 9 8 8 8 7 7 5 3 3 3 3 4 6
4 5 4 5 4 3 4 5 10 16 15 8 5 2 1 5 6 11 14 14 14 14 15 15 14 15 16 14 12 11 9 9 8 8 8 7 6 3 2 2 3 5 6 6
4 4 6 6 1 6 2 6 5 7 8 9 6 2 5 7 9 12 14 15 16 15 14 13 14 16 16 13 11 10 10 10 9 8 8 6 5 3 2 3 5 5 6 7
3 3 4 3 4 5 6 5 5 3 6 9 10 10 10 11 12 13 15 15 15 16 14 11 13 16 15 12 9 11 11 10 9 7 6 5 5 4 4 4 5 6 6 7
6 6 5 2 4 4 4 4 1 5 9 15 12 10 12 11 12 12 13 13 13 17 15 11 10 14 15 9 10 11 11 9 7 7 6 5 4 4 3 3 4 5 6 7
4 6 5 3 2 3 4 1 3 8 12 12 13 14 14 13 13 12 13 13 14 16 15 12 10 12 12 10 10 11 10 8 6 6 5 5 4 3 3 4 5 6 6 7
5 7 6 3 3 4 5 8 12 11 10 14 18 16 14 13 12 12 13 11 12 14 14 12 11 11 9 9 10 10 8 7 5 5 4 3 3 3 4 4 5 7 5 5
6 6 4 1 6 7 7 9 13 16 14 10 13 16 15 12 11 12 12 12 13 13 13 12 11 10 8 8 9 9 7 5 4 3 3 3 3 4 7 7 11 13 13 12
3 2 3 6 6 6 7 9 11 12 14 15 12 14 15 13 11 11 11 12 12 12 12 11 10 9 7 7 8 8 7 5 3 3 3 3 3 4 6 7 10 12 14 16
5 5 4 4 5 7 11 13 13 14 13 13 13 13 14 13 12 12 11 10 11 12 10 10 10 8 6 7 7 7 6 5 4 3 2 2 3 4 4 6 8 7 11 16
3 3 6 9 11 11 11 15 16 14 13 12 11 12 13 13 12 10 10 11 11 11 9 9 9 7 5 6 7 7 5 3 2 1 2 3 4 4 4 5 6 7 7 9
7 9 12 14 15 13 13 15 16 14 12 12 12 12 12 13 12 10 9 10 11 10 8 8 8 6 6 7 7 5 4 4 2 1 3 3 4 4 4 5 6 7 7 8
11 11 10 13 14 13 11 12 14 14 13 14 13 13 14 14 13 10 8 8 8 8 7 7 7 6 6 6 6 3 2 3 5 3 3 4 4 4 5 5 6 6 7 11
6 8 12 17 18 16 13 12 14 14 13 13 14 13 13 13 12 10 9 9 10 9 7 6 7 6 6 5 4 3 2 2 3 3 3 4 4 4 5 6 7 8 8 10
8 11 13 13 13 15 15 15 14 13 14 14 14 12 11 11 10 10 9 9 9 7 4 5 9 7 5 4 4 2 2 2 3 3 4 7 7 5 5 6 7 7 8 9
9 12 14 13 12 14 16 15 15 14 13 13 14 14 12 10 10 9 9 7 5 4 5 6 7 5 4 4 4 2 2 3 3 4 4 5 5 6 6 7 8 8 9 9
12 14 16 16 14 13 14 15 16 15 12 12 13 13 12 10 8 8 9 7 4 5 6 8 5 3 3 3 3 2 3 3 3 4 5 6 6 7 7 7 9 9 10 10
11 14 15 16 17 14 11 12 14 15 13 12 13 13 12 10 9 8 7 5 5 8 6 4 2 3 5 4 3 2 3 3 4 4 5 5 6 7 7 8 9 9 9 9
12 13 15 16 17 16 13 12 12 13 13 13 12 12 11 8 6 7 6 4 5 8 5 3 4 6 5 3 3 3 3 4 4 5 6 6 7 7 7 8 8 9 9 9
14 15 15 15 17 17 15 12 11 11 12 11 10 10 11 8 6 5 5 9 10 9 5 5 6 5 5 3 3 3 4 4 5 6 6 6 7 6 7 8 8 8 8 10
15 16 17 17 15 13 14 14 14 13 13 10 10 9 6 5 6 6 6 7 9 8 5 5 6 5 4 3 3 4 4 5 6 5 4 6 6 6 7 7 7 8 9 9
13 13 11 11 12 12 12 11 10 9 10 10 7 6 7 7 8 7 6 6 7 7 4 3 4 5 4 4 4 5 5 6 7 6 6 7 7 7 7 8 9 9 9 9
11 12 12 12 10 9 10 10 11 10 10 10 8 6 7 7 7 7 6 5 4 4 3 3 3 4 4 4 5 5 5 6 6 6 6 6 6 7 8 9 9 9 9 10
Wind_Direction
249 249 241 233 224 215 218 225 235 249 258 270 286 291 292 277 184 150 146 146 147 143 135 130 127 125 125 123 121 122 120 118 117 117 117 115 110 105 97 88 81 66 44 16
266 255 245 243 237 228 225 228 233 250 265 266 270 271 273 242 184 170 164 157 151 147 143 140 138 134 129 125 122 121 120 119 121 119 115 111 108 103 92 78 65 48 25 0
279 283 246 244 231 225 224 220 221 234 244 256 270 282 265 227 194 180 170 162 159 156 149 143 141 139 132 128 122 117 117 119 121 118 112 109 105 93 81 70 51 29 3 339
284 294 280 267 262 206 212 218 214 228 239 233 263 254 211 267 198 170 163 158 152 143 135 132 128 125 121 120 118 117 118 118 118 113 107 101 93 86 77 59 35 3 327 322
286 306 299 311 328 161 173 222 210 224 238 234 140 285 153 358 7 146 141 136 132 132 132 129 127 125 119 114 115 117 118 117 113 111 108 101 93 84 66 45 10 328 324 332
298 316 338 327 317 117 109 278 216 212 226 196 153 247 299 30 67 101 113 119 121 121 122 122 124 122 118 119 119 119 115 108 104 105 107 105 99 83 56 28 345 339 332 323
253 282 289 294 300 113 157 273 322 197 189 154 171 149 95 81 81 96 106 113 118 118 118 122 123 119 117 117 115 113 108 102 98 101 105 106 98 81 44 16 359 345 323 316
214 262 284 336 125 180 239 306 348 80 113 114 106 99 94 89 91 98 104 109 114 113 109 108 115 116 113 110 109 107 104 101 99 98 98 96 84 56 32 14 351 334 322 316
205 225 251 258 240 281 281 262 289 108 122 125 117 110 107 101 100 101 107 108 110 111 106 95 96 113 114 113 112 108 104 104 106 97 80 73 64 38 14 358 341 324 316 315
272 273 276 287 322 0 1 47 110 120 127 123 120 123 118 115 110 107 105 106 109 107 104 94 88 97 111 116 114 112 110 109 103 91 72 48 33 18 356 338 325 318 317 318
268 276 291 292 100 84 78 88 96 93 98 120 126 125 121 116 112 109 104 97 98 104 105 103 101 100 106 115 115 111 108 104 97 87 76 43 10 344 330 300 296 317 312 308
234 244 210 248 124 127 122 116 118 115 106 105 122 122 117 110 109 108 103 102 102 104 109 110 108 105 107 114 117 117 111 103 96 87 58 32 358 334 328 324 327 331 333 332
228 74 99 101 105 106 112 114 113 114 122 118 113 118 118 113 109 108 106 110 113 117 119 117 112 107 107 110 108 108 112 109 90 67 37 3 340 325 320 325 329 335 339 338
148 130 126 146 131 116 115 108 100 96 99 108 111 109 108 107 107 107 109 113 118 120 119 117 111 106 107 107 103 100 94 84 76 50 6 323 304 300 301 313 323 323 330 334
159 180 148 129 117 118 121 120 112 107 105 99 100 107 111 114 113 112 115 120 118 115 115 115 112 111 110 105 98 92 83 69 71 18 322 302 299 301 303 306 309 312 315 324
112 102 121 132 137 138 138 133 126 123 118 113 109 107 107 110 112 114 118 126 125 126 127 121 115 115 108 99 94 86 66 40 45 341 311 305 305 307 310 309 309 313 318 322
135 139 147 152 152 149 146 138 134 131 125 122 120 119 116 114 111 107 101 99 105 111 116 116 114 108 100 101 102 96 65 5 349 339 316 312 309 309 309 308 308 310 311 316
165 160 164 161 155 146 132 122 123 125 125 128 127 124 123 123 121 117 111 105 97 86 84 98 104 101 101 108 105 94 47 339 324 321 324 320 314 312 310 310 310 308 308 313
133 137 139 140 142 138 132 128 125 123 126 129 125 119 113 112 116 118 115 111 111 106 96 106 115 102 92 97 106 71 23 345 340 340 331 327 329 315 310 310 307 304 309 316
120 125 126 121 120 127 127 126 125 126 127 126 120 116 113 113 118 115 104 90 86 117 124 112 102 97 88 86 98 62 27 3 349 338 325 317 314 314 312 312 311 311 314 314
127 128 127 124 117 116 124 129 130 128 126 123 124 124 122 116 111 110 108 99 84 108 110 110 102 106 112 97 71 55 33 5 344 328 317 316 314 309 306 307 313 315 314 313
127 128 126 124 122 117 115 117 122 122 118 113 114 118 119 116 106 92 83 106 119 115 99 94 102 118 112 88 59 34 17 354 333 320 309 306 307 305 308 313 313 311 309 309
126 126 126 126 124 118 109 108 114 118 119 121 125 126 124 120 117 118 114 112 109 112 104 95 102 99 78 59 33 12 354 333 317 308 305 301 304 307 308 307 306 306 307 307
127 126 125 124 121 117 113 108 105 106 106 105 109 117 120 114 88 74 111 126 121 106 86 84 79 70 58 43 7 343 325 309 297 289 293 303 305 301 299 301 303 305 304 304
129 130 131 130 125 122 121 116 108 106 102 100 94 86 82 95 114 110 97 101 109 97 67 51 46 42 37 359 338 319 305 293 291 296 298 297 293 295 298 299 300 302 302 300
132 132 128 122 126 130 131 125 121 119 117 111 99 88 92 95 101 99 92 88 91 93 78 44 20 13 355 334 317 303 291 293 304 305 295 294 293 296 299 300 299 298 296 295
114 117 115 111 111 117 120 122 124 125 126 125 117 108 106 103 100 97 95 91 87 76 51 24 4 344 328 315 302 291 284 286 293 295 292 288 288 290 293 294 295 295 296 296
Height
1407 1404 1405 1403 1403 1404 1405 1403 1403 1392 1387 1379 1383 1385 1383 1378 1375 1375 1376 1379 1384 1390 1397 1405 1413 1420 1426 1431 1437 1443 1449 1454 1458 1461 1464 1466 1467 1468 1468 1467 1466 1466 1465 1464
1398 1393 1393 1393 1392 1393 1392 1392 1392 1390 1383 1375 1380 1381 1378 1374 1374 1375 1376 1380 1385 1392 1399 1406 1412 1419 1425 1431 1437 1443 1448 1453 1457 1460 1462 1463 1465 1465 1465 1464 1464 1463 1462 1460
1389 1382 1382 1379 1373 1376 1377 1378 1382 1383 1374 1373 1376 1376 1375 1373 1372 1373 1376 1380 1386 1392 1399 1405 1413 1419 1425 1431 1437 1443 1448 1452 1456 1458 1460 1461 1462 1462 1462 1462 1462 1460 1459 1456
1390 1380 1371 1364 1357 1358 1364 1368 1371 1369 1368 1371 1373 1373 1372 1371 1371 1374 1377 1382 1387 1393 1400 1407 1414 1421 1426 1432 1437 1443 1447 1451 1454 1456 1458 1459 1460 1460 1460 1460 1458 1457 1455 1452
1387 1375 1369 1360 1356 1357 1361 1362 1361 1363 1364 1368 1370 1371 1370 1369 1370 1373 1377 1382 1387 1394 1401 1408 1415 1421 1427 1432 1438 1443 1447 1450 1453 1455 1456 1457 1458 1458 1458 1457 1455 1453 1451 1447
1387 1378 1372 1365 1358 1355 1360 1359 1352 1355 1358 1364 1369 1370 1369 1369 1370 1373 1378 1383 1389 1396 1404 1410 1417 1422 1427 1433 1438 1442 1446 1449 1451 1454 1455 1456 1456 1456 1454 1453 1451 1449 1446 1443
1388 1383 1376 1366 1361 1361 1366 1357 1349 1349 1353 1360 1364 1366 1369 1369 1372 1375 1379 1385 1392 1399 1406 1412 1418 1424 1429 1434 1438 1442 1445 1448 1451 1453 1454 1454 1454 1452 1451 1450 1448 1445 1442 1439
1386 1383 1378 1365 1365 1366 1361 1353 1351 1351 1353 1358 1363 1366 1369 1372 1374 1378 1383 1389 1395 1401 1408 1415 1421 1426 1430 1434 1438 1442 1445 1448 1450 1452 1452 1452 1451 1450 1448 1446 1443 1440 1437 1434
1380 1376 1367 1365 1364 1362 1359 1355 1353 1352 1355 1358 1363 1369 1373 1377 1380 1385 1389 1394 1401 1406 1411 1418 1424 1428 1431 1435 1439 1442 1445 1447 1449 1450 1450 1449 1448 1447 1445 1442 1439 1436 1432 1428
1373 1367 1364 1362 1362 1360 1357 1355 1354 1355 1358 1361 1366 1372 1377 1382 1387 1391 1396 1401 1406 1410 1414 1420 1426 1430 1433 1437 1440 1443 1445 1446 1447 1447 1447 1447 1445 1444 1442 1439 1436 1432 1428 1424
1370 1365 1361 1360 1361 1360 1359 1358 1358 1361 1364 1368 1371 1378 1383 1387 1392 1397 1401 1406 1411 1414 1418 1422 1427 1431 1435 1438 1441 1442 1444 1445 1445 1445 1445 1444 1443 1442 1439 1436 1433 1429 1425 1421
1366 1361 1361 1360 1361 1362 1362 1362 1363 1365 1370 1376 1379 1382 1387 1392 1397 1402 1406 1410 1415 1419 1422 1426 1429 1433 1436 1438 1440 1441 1442 1443 1444 1444 1443 1442 1441 1440 1437 1434 1431 1427 1423 1419
1360 1359 1359 1359 1361 1364 1365 1366 1368 1371 1374 1379 1385 1388 1392 1397 1402 1406 1411 1415 1419 1422 1425 1428 1431 1434 1436 1438 1439 1440 1441 1442 1442 1442 1441 1440 1438 1435 1433 1431 1428 1424 1420 1415
1358 1358 1358 1359 1361 1365 1367 1369 1372 1376 1380 1385 1389 1393 1397 1401 1406 1411 1415 1418 1422 1424 1427 1430 1432 1434 1436 1438 1439 1440 1441 1441 1441 1441 1439 1437 1435 1432 1429 1425 1422 1419 1416 1412
1355 1357 1357 1358 1362 1366 1369 1372 1375 1379 1384 1389 1394 1397 1401 1405 1409 1413 1417 1421 1424 1426 1429 1431 1433 1435 1437 1439 1440 1440 1441 1441 1440 1439 1437 1435 1432 1430 1427 1423 1419 1414 1410 1407
1353 1355 1356 1358 1362 1366 1370 1374 1377 1382 1387 1392 1397 1401 1405 1408 1412 1415 1419 1422 1425 1427 1430 1432 1434 1436 1438 1439 1440 1440 1440 1439 1438 1436 1434 1432 1430 1427 1423 1419 1415 1411 1407 1402
1349 1352 1355 1359 1362 1366 1371 1375 1379 1384 1389 1394 1399 1403 1406 1410 1413 1417 1420 1424 1427 1429 1432 1434 1436 1437 1438 1439 1439 1439 1439 1438 1436 1434 1432 1429 1427 1423 1419 1416 1412 1408 1404 1400
1349 1350 1352 1354 1359 1365 1372 1377 1382 1387 1391 1396 1401 1405 1409 1412 1415 1418 1422 1425 1428 1430 1433 1435 1436 1437 1438 1439 1439 1438 1437 1436 1434 1432 1429 1426 1423 1420 1416 1412 1409 1404 1400 1396
1349 1351 1353 1358 1363 1367 1372 1378 1384 1389 1394 1399 1403 1407 1411 1414 1417 1420 1423 1426 1429 1431 1433 1435 1436 1437 1438 1438 1437 1437 1435 1434 1432 1429 1426 1423 1420 1416 1413 1409 1405 1401 1396 1392
1349 1352 1355 1359 1365 1370 1375 1381 1386 1391 1396 1401 1404 1408 1412 1416 1419 1422 1425 1428 1430 1432 1434 1435 1436 1437 1437 1437 1436 1435 1433 1431 1428 1425 1422 1419 1416 1412 1409 1405 1401 1396 1392 1388
1349 1352 1356 1360 1366 1373 1379 1384 1388 1393 1398 1403 1406 1409 1413 1417 1420 1423 1426 1428 1431 1432 1434 1435 1436 1436 1436 1436 1434 1433 1430 1428 1425 1422 1419 1415 1412 1408 1405 1401 1396 1392 1388 1384
1351 1354 1358 1363 1368 1375 1381 1387 1392 1396 1400 1404 1409 1412 1415 1418 1422 1424 1427 1430 1431 1433 1434 1434 1435 1435 1435 1433 1432 1430 1427 1424 1421 1418 1415 1412 1408 1404 1400 1396 1392 1388 1384 1380
1352 1357 1361 1366 1371 1377 1383 1389 1394 1398 1402 1406 1410 1414 1417 1420 1423 1425 1427 1430 1431 1432 1433 1434 1434 1433 1432 1431 1429 1427 1424 1421 1418 1415 1411 1408 1404 1400 1396 1392 1389 1385 1380 1376
1353 1358 1363 1369 1375 1380 1385 1391 1397 1401 1405 1409 1413 1416 1419 1421 1424 1426 1428 1429 1431 1432 1433 1433 1432 1431 1430 1428 1426 1423 1420 1417 1414 1411 1407 1404 1400 1396 1393 1389 1385 1381 1377 1373
1354 1360 1366 1371 1377 1382 1387 1392 1397 1402 1406 1410 1414 1417 1421 1423 1425 1426 1428 1430 1431 1432 1432 1431 1431 1429 1428 1425 1423 1420 1417 1413 1410 1406 1403 1400 1396 1393 1390 1386 1382 1378 1375 1371
1357 1362 1368 1373 1379 1384 1388 1393 1397 1402 1406 1410 1414 1418 1421 1423 1425 1427 1429 1430 1430 1431 1431 1430 1429 1427 1425 1422 1419 1416 1413 1409 1406 1403 1399 1396 1392 1389 1386 1383 1380 1376 1373 1370
1359 1364 1369 1376 1382 1387 1391 1395 1399 1404 1408 1412 1415 1419 1421 1424 1426 1427 1429 1429 1430 1430 1430 1428 1426 1424 1421 1418 1415 1412 1409 1405 1401 1398 1395 1392 1389 1386 1383 1380 1377 1374 1371 1368